Regional Weather Roundup
Issued by NWS

Home | Current Version | Previous Version | Text Only | Print | Product List | Glossary Off
Versions: 1 2 3 4 5 6 7 8 9 10 11 12 13 14 15 16 17 18 19 20 21 22 23 24 25 26 27 28 29 30 31 32 33 34 35 36 37 38 39 40 41 42 43 44 45 46 47 48 49 50

000
ASUS43 KMKX 092000
RWRWI

WISCONSIN REGIONAL WEATHER ROUNDUP
NATIONAL WEATHER SERVICE MILWAUKEE/SULLIVAN WI
200 PM CST TUE FEB 09 2016

NOTE: "FAIR" INDICATES FEW OR NO CLOUDS BELOW 12,000 FEET WITH NO
SIGNIFICANT WEATHER AND/OR OBSTRUCTIONS TO VISIBILITY.

WIZ001-002-006>008-014>016-023>028-092100-
NORTHWEST WISCONSIN

CITY           SKY/WX    TMP DP  RH WIND       PRES   REMARKS
SUPERIOR ARPT  SUNNY     13  -3  50 NW13      30.08F WCI  -2
ASHLAND        CLOUDY    11   2  67 NW9       30.02F WCI  -2
HAYWARD        CLOUDY     9   0  67 NW9       29.99F WCI  -4
SIREN          SUNNY     14  -3  46 NW12G20   30.04F WCI   1
CUMBERLAND     SUNNY     10   0  61 NW12      29.99F WCI  -4
RICE LAKE      SUNNY     12  -1  56 NW9G17    30.01F WCI  -1
CHETEK         SUNNY     11  -1  59 N10G16    30.00F WCI  -2
LADYSMITH      PTSUNNY   12   1  63 NW18      29.97F WCI  -6
EAU CLAIRE     NOT AVBL
MENOMONIE      SUNNY     16  -1  48 NW15      30.02F WCI   1
NEW RICHMOND   SUNNY     14  -1  51 NW16G22   30.04S WCI  -2
OSCEOLA        SUNNY     15  -1  48 NW16G24   30.09S WCI   0
$$

WIZ003>005-009-010-017-018-092100-
NORTH CENTRAL WISCONSIN

CITY           SKY/WX    TMP DP  RH WIND       PRES   REMARKS
MANITOWISH WTR LGT SNOW  10   4  77 N16G24    29.86S WCI  -8
ARBOR VITAE    LGT SNOW  13   6  72 N18G29    29.85S WCI  -4
WOODRUFF       LGT SNOW  13   6  72 N18G29    29.85S WCI  -4
RHINELANDER    LGT SNOW  12   3  67 N17G28    29.82S WCI  -5
EAGLE RIVER    CLOUDY    11   2  65 N17G29    29.82S HAZE    WCI  -6
LAND O LAKES   LGT SNOW  11   4  74 N22G31    29.83S WCI  -9
PHILLIPS       CLOUDY     9   1  69 NW13G23   29.90S WCI  -7
TOMAHAWK       CLOUDY    13   3  64 N12G26    29.85F HAZE    WCI  -1
MEDFORD        CLOUDY    11   3  70 N20G29    29.87S HAZE    WCI  -7
MERRILL        CLOUDY    15   4  62 N15G25    29.85S WCI   0
$$

WIZ029-030-035-036-043>047-092100-
CENTRAL WISCONSIN

CITY           SKY/WX    TMP DP  RH WIND       PRES   REMARKS
WAUSAU         CLOUDY    16   5  62 NW13G24   29.83S WCI   2
MOSINEE        CLOUDY    16   7  67 NW20G26   29.85S WCI  -1
MARSHFIELD     CLOUDY    13   3  64 NW26G33   29.87S HAZE    WCI  -7
STEVENS POINT  CLOUDY    15   4  63 NW15G22   29.85S WCI  -1
WAUPACA        CLOUDY    21   7  54 NW14G20   29.84S WCI   8
WAUTOMA        NOT AVBL
WISC RAPIDS    CLOUDY    15   4  61 NW23G29   29.89S WCI  -3
CAMP DOUGLAS   NOT AVBL
$$

WIZ011>013-019>022-031-037>040-048>050-092100-
NORTHEAST WISCONSIN

CITY           SKY/WX    TMP DP  RH WIND       PRES   REMARKS
ANTIGO         LGT SNOW  13   7  74 N20G25    29.80R WCI  -4
SHAWANO        CLOUDY    21   6  53 N13G21    29.83R WCI   8
OCONTO         PTSUNNY   18   6  58 N12G18    29.81S WCI   6
STURGEON BAY   CLOUDY    18   7  62 NW18      29.80R WCI   2
GREEN BAY      FLURRIES  19   8  62 NW20G25   29.82R WCI   3
MANITOWOC      NOT AVBL
APPLETON       PTSUNNY   18   5  57 NW15      29.80S WCI   3
CLINTONVILLE   CLOUDY    21   5  49 N9G22     29.82F WCI  11
OSHKOSH        CLOUDY    18   7  62 NW15      29.82S WCI   4
$$

WIZ032>034-041-042-053>061-092100-
SOUTHWEST WISCONSIN

CITY           SKY/WX    TMP DP  RH WIND       PRES   REMARKS
LA CROSSE      SUNNY     14   0  53 N16       30.00F WCI  -2
SPARTA         MOSUNNY   13   2  61 N17G25    29.97F WCI  -3
VIROQUA        MOSUNNY   12   1  61 NW16      29.92F WCI  -5
BOSCOBEL       MOSUNNY   16   1  51 NW14G23   29.97F WCI   2
PRAIRIE DU CHI SUNNY     15   1  53 NW17G23   29.99F WCI  -1
PLATTEVILLE    PTSUNNY   14   5  68 NW15      29.92S WCI  -1
$$

WIZ056-057-062-063-064-067-068-092100-
SOUTH CENTRAL WISCONSIN

CITY           SKY/WX    TMP DP  RH WIND       PRES   REMARKS
REEDSBURG      CLOUDY    13   3  65 NW14G22   29.90F WCI  -2
BARABOO/DELLS  CLOUDY    15   3  58 N14G23    29.88F WCI   0
LONE ROCK      NOT AVBL
MINERAL POINT  PTSUNNY   18   3  53 NW15      29.89S WCI   3
MADISON        LGT SNOW  14   6  70 NW16G23   29.88R WCI  -2
MIDDLETON      CLOUDY    16   6  66 NW16G24   29.88S WCI   0
WATERTOWN      CLOUDY    16   7  66 NW16G22   29.84F WCI   1
MONROE         PTSUNNY   18   9  68 NW17      29.86S HAZE    WCI   2
JANESVILLE     CLOUDY    18   7  62 NW20      29.86S WCI   1
$$

WIZ051-052-058>065-066-070>072-092100-
SOUTHEAST WISCONSIN

CITY           SKY/WX    TMP DP  RH WIND       PRES   REMARKS
MILWAUKEE      CLOUDY    17   6  62 NW13      29.82S WCI   4
WAUKESHA       CLOUDY    14   7  73 W17       29.83R WCI  -3
MILWAUKEE/TIMM CLOUDY    18   7  62 NW14G25   29.83S WCI   4
RACINE         CLOUDY    18   6  59 N14G21    29.83R WCI   4
BURLINGTON     CLOUDY    15   5  64 NW15G22   29.84R WCI   0
KENOSHA        CLOUDY    17   7  64 NW12      29.82S WCI   4
FOND DU LAC    LGT SNOW  16   8  71 NW14      29.83S WCI   2
SHEBOYGAN      CLOUDY    18   7  62 NW16      29.80S WCI   3
WEST BEND      FLURRIES  18   9  68 NW13G21   29.81S WCI   4
JUNEAU         CLOUDY    15   6  68 NW10G21   29.85S WCI   2
$$

LSZ147-162-092100-
LAKE SUPERIOR

STATION/POSITION TIME  TEMP    WIND        PRES    WAVE
                       AIR SEA DIR/SP/G            HT/PER
                 (UTC) (F)     (DEG/KT/KT) (MB)    (FT/S)
DEVILS ISLAND    1900   10     330/ 18/ 21 1018.9F
SAXON HARBOR     1900   11                 1016.6
$$

LMZ867-665-643>646-092100-
LAKE MICHIGAN

STATION/POSITION TIME  TEMP    WIND        PRES    WAVE
                       AIR SEA DIR/SP/G            HT/PER
                 (UTC) (F)     (DEG/KT/KT) (MB)    (FT/S)
CHAMBERS ISLAND  1900   19     310/ 15/ 25 1008.5R
ALGOMA LAKESHORE 1911          320/ 14/ 20   N/A
KEWAUNEE LAKESHO 1900   18     340/ 15/ 21 1007.9F
SHEBOYGAN LAKESH 1900   18     310/ 18/ 22 1010.5S
PORT WASHINGTON  1940   18     300/ 11/ 18 1010.5F
MILWAUKEE LAKESH 1910   18     310/ 11/ 13   N/A
KENOSHA   LAKESH 1900   17     320/ 14/ 19 1009.8S
$$

TC  - TEMPERATURE IN CELSIUS
VSB - VISIBILITY IN STATUTE MILES
WCI - WIND CHILL INDEX
HX  - HEAT INDEX




USA.gov is the U.S. government's official web portal to all federal, state and local government web resources and services.